User: anonymous   Login
Location: Unspecified
(0.0000°N, 0.0000°E)
Time: 12:37:41
(UTC+00:00)
Language:

GALILEO-FM4 - Orbit

View from above orbital plane
View from above orbital plane
View from above satellite
View from above satellite

Ground track
Ground track

The orbit data is extracted from the following two-line orbital elements,

1 38858U 12055B   17087.24190428 -.00000000 +00000-0 +00000-0 0  9999
2 38858 054.9117 194.2711 0002549 223.5753 136.4039 01.70473620027749
Epoch (UTC): 28 March 2017 05:48:20
Eccentricity: 0.0002549
inclination: 54.9117°
perigee height: 23214 km
apogee height: 23229 km
right ascension of ascending node: 194.2711°
argument of perigee: 223.5753°
revolutions per day: 1.70473620
mean anomaly at epoch: 136.4039°
orbit number at epoch: 2774

The dashed part of the orbit path shows where the satellite is in the earth's shadow,  

DLR